Location: Rometta
(44.2000°N, 10.0500°E)
Time: 11:37:44
(UTC+00:00)

Cosmos 923 Rocket - Pass Details

Date: 20 January 2021
Orbit: 758 x 785 km, 74.0° (Epoch: 06 March)

Event Time Altitude Azimuth Distance (km) Brightness Sun altitude
Rises 18:10:01 0° 339° (NNW) 3,285 7.4 -20.6°
Reaches altitude 10° 18:12:26 10° 341° (NNW) 2,352 6.6 -21.0°
Maximum altitude 18:17:48 82° 69° (ENE) 795 3.9 -22.0°
Drops below altitude 10° 18:23:06 10° 158° (SSE) 2,324 6.3 -22.9°
Enters shadow 18:23:16 - 158° (SSE) 2,391 6.4 -23.0°
